Nellis AFB, NV

7:38 PM PST on December 08, 2019 (GMT -0800)
Nellis Air Force Base

Weather History for KLSV - September, 2019

Change the Weather History Date:

Sunday, September 29, 2019

  Actual Average Record
Temperature  
Mean Temperature 68 °F -  
Max Temperature 75 °F 89 °F 102 °F (2003)
Min Temperature 61 °F 62 °F 51 °F (2013)
Cooling Degree Days 3    
Growing Degree Days 18 (Base 50)    
Moisture  
Dew Point 25 °F    
Average Humidity 22    
Maximum Humidity 40    
Minimum Humidity 10    
Precipitation  
Precipitation 0.00 in - - ()
Sea Level Pressure  
Sea Level Pressure 29.64 in    
Wind  
Wind Speed 18 mph (South)    
Max Wind Speed 28 mph    
Max Gust Speed 37 mph    
Visibility 10 miles    
Events      
Averages and records for this station are not official NWS values.
T = Trace of Precipitation, MM = Missing Value Source: NWS Daily Summary

Daily Weather History Graph

Daily Weather History Graph

Search for Another Location

Airport or City:

Astronomy

Sep. 29, 2019 Rise Set
Actual Time 6:33 AM PDT 6:26 PM PDT
Civil Twilight 6:07 AM PDT 6:52 PM PDT
Nautical Twilight 5:38 AM PDT 7:22 PM PDT
Astronomical Twilight 5:07 AM PDT 7:52 PM PDT
Moon 7:29 AM PDT (9/29) 7:31 PM PDT (9/29)
Length of Visible Light 12h 44m
Length of Day
11h 53m
New Moon, 2% of the Moon is Illuminated
Sep 29
New Moon
Oct 5
First Quarter
Oct 13
Full
Oct 21
Last Quarter
Oct 27
New

Hourly Weather History & Observations

Time (PDT) Temp. Dew Point Humidity Pressure Visibility Wind Dir Wind Speed Gust Speed Precip Events Conditions
12:58 AM 68.2 °F 39.0 °F 34% 29.52 in 10.0 mi SSW 18.4 mph 24.2 mph N/A   Clear
1:58 AM 67.1 °F 37.6 °F 34% 29.49 in 10.0 mi SSW 26.5 mph 36.8 mph N/A   Clear
2:58 AM 65.3 °F 40.1 °F 40% 29.50 in 10.0 mi SW 27.6 mph 35.7 mph N/A   Clear
3:58 AM 64.4 °F 37.4 °F 37% 29.55 in 10.0 mi SSW 23.0 mph 31.1 mph N/A   Clear
4:58 AM 63.3 °F 33.3 °F 33% 29.59 in 10.0 mi SSW 19.6 mph 33.4 mph N/A   Clear
5:58 AM 62.8 °F 30.2 °F 29% 29.59 in 10.0 mi SSW 20.7 mph 32.2 mph N/A   Clear
6:58 AM 61.5 °F 31.5 °F 32% 29.64 in 10.0 mi South 23.0 mph 33.4 mph N/A   Clear
7:58 AM 63.1 °F 30.4 °F 29% 29.66 in 10.0 mi South 26.5 mph - N/A   Clear
8:58 AM 64.4 °F 28.8 °F 26% 29.70 in 10.0 mi South 20.7 mph - N/A   Clear
9:58 AM 67.3 °F 27.1 °F 22% 29.72 in 10.0 mi SSE 16.1 mph - N/A   Clear
10:58 AM 69.3 °F 26.4 °F 20% 29.73 in 10.0 mi South 13.8 mph - N/A   Clear
12:58 PM 72.7 °F 25.3 °F 17% 29.70 in 10.0 mi SSE 12.7 mph - N/A   Clear
1:58 PM 73.6 °F 24.6 °F 16% 29.72 in 10.0 mi South 12.7 mph 18.4 mph N/A   Clear
2:58 PM 74.1 °F 21.9 °F 14% 29.72 in 10.0 mi SSE 8.1 mph 16.1 mph N/A   Clear
3:58 PM 75.4 °F 19.2 °F 12% 29.65 in 10.0 mi South 8.1 mph - N/A   Clear
4:58 PM 75.7 °F 15.3 °F 10% 29.68 in 10.0 mi South 10.4 mph - N/A   Clear
5:58 PM 74.5 °F 14.4 °F 10% 29.62 in 10.0 mi SSW 12.7 mph - N/A   Clear
6:55 PM 71.1 °F 13.5 °F 11% 29.62 in 10.0 mi SW 10.4 mph - N/A   Clear
7:55 PM 69.1 °F 13.8 °F 12% 29.65 in 10.0 mi SSW 5.8 mph - N/A   Clear
8:55 PM 68.0 °F 16.3 °F 14% 29.65 in 10.0 mi SSW 10.4 mph - N/A   Clear
9:55 PM 68.4 °F 15.1 °F 13% 29.65 in 10.0 mi SSW 13.8 mph - N/A   Clear
10:55 PM 66.6 °F 10.6 °F 11% 29.66 in 10.0 mi SW 13.8 mph - N/A   Clear
11:58 PM 64.4 °F 24.8 °F 22% 29.70 in 10.0 mi South 18.4 mph - N/A   Clear